Location: Jackson Park
(37.2862°N, 79.9123°W)
Time: 11:33:40
(UTC+00:00)

Vanguard 2 - Pass Details

Date: 16 May 2026
Orbit: 553 x 2894 km, 32.9° (Epoch: 11 June)

Event Time Altitude Azimuth Distance (km) Brightness Sun altitude
Rises 04:07:41 0° 201° (SSW) 5,699 - -31.4°
Reaches altitude 10° 04:11:58 10° 190° (S) 5,004 - -31.6°
Maximum altitude 04:23:56 28° 138° (SE) 4,238 - -32.3°
Exits shadow 04:28:25 25° 117° (ESE) 4,504 11.0 -32.5°
Drops below altitude 10° 04:37:20 10° 89° (E) 5,677 11.8 -32.9°
Sets 04:42:32 0° 79° (E) 6,576 12.3 -33.1°
